| time (UTC) | temp C | wind direction | speed KPH | gust KPH | rain 1hr cm | rain 24hr cm | rain mn cm | humidity % | barometer mb |
| 20260504081529 | 18 | 242 | 1.6 | 6.4 | 0.00 | 0.00 | 0.00 | 54 | 1006.6 |
| 20260504081054 | 18 | 224 | 1.6 | 6.4 | 0.00 | 0.00 | 0.00 | 54 | 1006.6 |
| 20260504080519 | 18 | 234 | 0.0 | 6.4 | 0.00 | 0.00 | 0.00 | 54 | 1006.6 |
| 20260504050539 | 20 | 193 | 0.0 | 3.2 | 0.00 | 0.00 | 0.00 | 53 | 1008.0 |
| 20260504050023 | 20 | 178 | 0.0 | 3.2 | 0.00 | 0.00 | 0.00 | 52 | 1008.0 |
| 20260504045547 | 20 | 235 | 0.0 | 3.2 | 0.00 | 0.00 | 0.00 | 52 | 1008.0 |
| 20260504045031 | 20 | 221 | 0.0 | 3.2 | 0.00 | 0.00 | 0.00 | 52 | 1008.0 |
| 20260504044516 | 20 | 245 | 0.0 | 3.2 | 0.00 | 0.00 | 0.00 | 52 | 1007.9 |
| 20260504044042 | 20 | 204 | 0.0 | 3.2 | 0.00 | 0.00 | 0.00 | 51 | 1008.0 |
| 20260504043526 | 20 | 212 | 0.0 | 3.2 | 0.00 | 0.00 | 0.00 | 51 | 1008.0 |
| 20260504043031 | 20 | 188 | 0.0 | 3.2 | 0.00 | 0.00 | 0.00 | 51 | 1008.1 |
| 20260504042536 | 20 | 173 | 0.0 | 3.2 | 0.00 | 0.00 | 0.00 | 51 | 1008.1 |
| 20260504042019 | 20 | 194 | 0.0 | 3.2 | 0.00 | 0.00 | 0.00 | 51 | 1008.2 |
| 20260504041522 | 20 | 209 | 0.0 | 1.6 | 0.00 | 0.00 | 0.00 | 51 | 1008.2 |
| 20260504041025 | 20 | 215 | 0.0 | 3.2 | 0.00 | 0.00 | 0.00 | 51 | 1008.2 |
| 20260504040523 | 20 | 202 | 0.0 | 3.2 | 0.00 | 0.00 | 0.00 | 51 | 1008.2 |
| 20260504040033 | 20 | 224 | 0.0 | 1.6 | 0.00 | 0.00 | 0.00 | 51 | 1008.3 |
| 20260504035557 | 20 | 201 | 0.0 | 3.2 | 0.00 | 0.00 | 0.00 | 51 | 1008.3 |
| 20260504035020 | 20 | 185 | 0.0 | 8.0 | 0.00 | 0.00 | 0.00 | 50 | 1008.3 |
| 20260504034546 | 20 | 227 | 0.0 | 8.0 | 0.00 | 0.00 | 0.00 | 50 | 1008.4 |
| 20260504034030 | 20 | 209 | 0.0 | 1.6 | 0.00 | 0.00 | 0.00 | 50 | 1008.4 |
| 20260504033556 | 20 | 217 | 0.0 | 3.2 | 0.00 | 0.00 | 0.00 | 50 | 1008.4 |
| 20260504033019 | 20 | 196 | 0.0 | 3.2 | 0.00 | 0.00 | 0.00 | 49 | 1008.5 |
| 20260504032523 | 20 | 193 | 0.0 | 1.6 | 0.00 | 0.00 | 0.00 | 49 | 1008.5 |
| 20260504032028 | 21 | 232 | 0.0 | 1.6 | 0.00 | 0.00 | 0.00 | 49 | 1008.5 |
| 20260504031534 | 21 | 171 | 0.0 | 1.6 | 0.00 | 0.00 | 0.00 | 49 | 1008.5 |
| 20260504031019 | 21 | 198 | 0.0 | 1.6 | 0.00 | 0.00 | 0.00 | 49 | 1008.5 |
| 20260504030524 | 21 | 192 | 0.0 | 1.6 | 0.00 | 0.00 | 0.00 | 49 | 1008.5 |
| 20260504030029 | 21 | 186 | 0.0 | 1.6 | 0.00 | 0.00 | 0.00 | 49 | 1008.5 |
| 20260504025519 | 21 | 209 | 0.0 | 1.6 | 0.00 | 0.00 | 0.00 | 49 | 1008.6 |
| 20260504025043 | 21 | 198 | 0.0 | 1.6 | 0.00 | 0.00 | 0.00 | 49 | 1008.5 |
| 20260504024528 | 21 | 109 | 0.0 | 1.6 | 0.00 | 0.00 | 0.00 | 49 | 1008.5 |
| 20260504024054 | 21 | 213 | 0.0 | 1.6 | 0.00 | 0.00 | 0.00 | 49 | 1008.5 |
| 20260504023518 | 21 | 213 | 0.0 | 1.6 | 0.00 | 0.00 | 0.00 | 49 | 1008.5 |
| 20260504023023 | 21 | 215 | 0.0 | 1.6 | 0.00 | 0.00 | 0.00 | 49 | 1008.5 |
| 20260504022529 | 21 | 181 | 0.0 | 1.6 | 0.00 | 0.00 | 0.00 | 49 | 1008.5 |
| 20260504022033 | 21 | 192 | 0.0 | 0.0 | 0.00 | 0.00 | 0.00 | 49 | 1008.5 |
| 20260504021518 | 21 | 178 | 0.0 | 0.0 | 0.00 | 0.00 | 0.00 | 48 | 1008.5 |
| 20260504021024 | 21 | 196 | 0.0 | 0.0 | 0.00 | 0.00 | 0.00 | 48 | 1008.5 |
| 20260504020549 | 21 | 190 | 0.0 | 0.0 | 0.00 | 0.00 | 0.00 | 47 | 1008.5 |
| 20260504020053 | 21 | 196 | 0.0 | 0.0 | 0.00 | 0.00 | 0.00 | 46 | 1008.5 |
| 20260504015518 | 21 | 169 | 0.0 | 0.0 | 0.00 | 0.00 | 0.00 | 46 | 1008.5 |
| 20260504015027 | 21 | 211 | 0.0 | 0.0 | 0.00 | 0.00 | 0.00 | 46 | 1008.4 |
| 20260504014532 | 21 | 219 | 0.0 | 0.0 | 0.00 | 0.00 | 0.00 | 45 | 1008.5 |
| 20260504014058 | 22 | 162 | 0.0 | 0.0 | 0.00 | 0.00 | 0.00 | 45 | 1008.4 |
| 20260504013520 | 22 | 197 | 0.0 | 0.0 | 0.00 | 0.00 | 0.00 | 44 | 1008.4 |
| 20260504013025 | 22 | 200 | 0.0 | 0.0 | 0.00 | 0.00 | 0.00 | 43 | 1008.4 |
| 20260504012531 | 22 | 182 | 0.0 | 0.0 | 0.00 | 0.00 | 0.00 | 43 | 1008.5 |
| 20260504012035 | 22 | 186 | 0.0 | 0.0 | 0.00 | 0.00 | 0.00 | 42 | 1008.4 |
| 20260504011520 | 22 | 193 | 0.0 | 0.0 | 0.00 | 0.00 | 0.00 | 41 | 1008.4 |
| 20260504011025 | 22 | 209 | 0.0 | 0.0 | 0.00 | 0.00 | 0.00 | 41 | 1008.5 |
| 20260504010530 | 23 | 194 | 0.0 | 0.0 | 0.00 | 0.00 | 0.00 | 41 | 1008.5 |
| 20260504010035 | 23 | 210 | 0.0 | 0.0 | 0.00 | 0.00 | 0.00 | 41 | 1008.6 |
| 20260504005540 | 23 | 209 | 0.0 | 0.0 | 0.00 | 0.00 | 0.00 | 41 | 1008.6 |
| 20260504005027 | 23 | 216 | 0.0 | 0.0 | 0.00 | 0.00 | 0.00 | 41 | 1008.6 |
| 20260504004533 | 23 | 197 | 0.0 | 0.0 | 0.00 | 0.00 | 0.00 | 41 | 1008.6 |
| 20260504004018 | 23 | 202 | 0.0 | 0.0 | 0.00 | 0.00 | 0.00 | 41 | 1008.7 |
| 20260504003523 | 23 | 227 | 0.0 | 0.0 | 0.00 | 0.00 | 0.00 | 40 | 1008.7 |
| 20260504003028 | 24 | 212 | 0.0 | 0.0 | 0.00 | 0.00 | 0.00 | 40 | 1008.7 |
| 20260504002533 | 24 | 209 | 0.0 | 0.0 | 0.00 | 0.00 | 0.00 | 40 | 1008.7 |
| 20260504002018 | 24 | 207 | 0.0 | 0.0 | 0.00 | 0.00 | 0.00 | 39 | 1008.8 |
| 20260504001524 | 24 | 245 | 0.0 | 0.0 | 0.00 | 0.00 | 0.00 | 39 | 1008.7 |
| 20260504001029 | 25 | 233 | 0.0 | 0.0 | 0.00 | 0.00 | 0.00 | 38 | 1008.7 |
| 20260504000554 | 25 | 240 | 0.0 | 0.0 | 0.00 | 0.00 | 0.00 | 37 | 1008.7 |
| 20260504000018 | 25 | 210 | 0.0 | 1.6 | 0.00 | 0.00 | 0.00 | 37 | 1008.7 |
| 20260503235543 | 25 | 209 | 0.0 | 1.6 | 0.00 | 0.00 | 0.00 | 35 | 1008.7 |
| 20260503235047 | 25 | 215 | 0.0 | 0.0 | 0.00 | 0.00 | 0.00 | 35 | 1008.7 |
| 20260503234535 | 25 | 244 | 0.0 | 1.6 | 0.00 | 0.00 | 0.00 | 34 | 1008.8 |
| 20260503234041 | 25 | 236 | 0.0 | 4.8 | 0.00 | 0.00 | 0.00 | 34 | 1008.8 |
| 20260503233545 | 25 | 231 | 0.0 | 4.8 | 0.00 | 0.00 | 0.00 | 34 | 1008.7 |
| 20260503233029 | 25 | 205 | 0.0 | 1.6 | 0.00 | 0.00 | 0.00 | 34 | 1008.8 |
| 20260503232534 | 25 | 224 | 0.0 | 1.6 | 0.00 | 0.00 | 0.00 | 34 | 1008.7 |
| 20260503232018 | 25 | 239 | 0.0 | 6.4 | 0.00 | 0.00 | 0.00 | 34 | 1008.8 |
| 20260503231545 | 25 | 232 | 0.0 | 11.3 | 0.00 | 0.00 | 0.00 | 34 | 1008.9 |
| 20260503231028 | 25 | 214 | 0.0 | 11.3 | 0.00 | 0.00 | 0.00 | 35 | 1008.8 |
| 20260503230534 | 26 | 197 | 0.0 | 4.8 | 0.00 | 0.00 | 0.00 | 36 | 1008.8 |
| 20260503230020 | 26 | 230 | 0.0 | 4.8 | 0.00 | 0.00 | 0.00 | 36 | 1008.9 |
| 20260503225524 | 26 | 203 | 0.0 | 3.2 | 0.00 | 0.00 | 0.00 | 36 | 1008.8 |
| 20260503225029 | 26 | 213 | 0.0 | 12.9 | 0.00 | 0.00 | 0.00 | 35 | 1009.0 |
| 20260503224517 | 26 | 213 | 1.6 | 12.9 | 0.00 | 0.00 | 0.00 | 35 | 1008.9 |
| 20260503224022 | 26 | 239 | 1.6 | 11.3 | 0.00 | 0.00 | 0.00 | 34 | 1008.9 |
| 20260503223528 | 26 | 202 | 1.6 | 8.0 | 0.00 | 0.00 | 0.00 | 34 | 1008.9 |
| 20260503223034 | 26 | 213 | 0.0 | 19.3 | 0.00 | 0.00 | 0.00 | 33 | 1009.0 |
| 20260503222519 | 26 | 279 | 1.6 | 19.3 | 0.00 | 0.00 | 0.00 | 34 | 1009.1 |
| 20260503222044 | 26 | 244 | 1.6 | 11.3 | 0.00 | 0.00 | 0.00 | 33 | 1009.0 |
| 20260503221529 | 26 | 169 | 3.2 | 17.7 | 0.00 | 0.00 | 0.00 | 34 | 1009.1 |
| 20260503221033 | 26 | 227 | 0.0 | 12.9 | 0.00 | 0.00 | 0.00 | 34 | 1009.1 |
| 20260503220519 | 26 | 197 | 1.6 | 12.9 | 0.00 | 0.00 | 0.00 | 33 | 1009.3 |
| 20260503220024 | 26 | 234 | 0.0 | 17.7 | 0.00 | 0.00 | 0.00 | 34 | 1009.2 |
| 20260503215530 | 26 | 256 | 1.6 | 27.4 | 0.00 | 0.00 | 0.00 | 33 | 1009.2 |
| 20260503215018 | 26 | 188 | 3.2 | 27.4 | 0.00 | 0.00 | 0.00 | 33 | 1009.3 |
| 20260503214524 | 26 | 182 | 3.2 | 17.7 | 0.00 | 0.00 | 0.00 | 33 | 1009.2 |
| 20260503214027 | 26 | 196 | 1.6 | 19.3 | 0.00 | 0.00 | 0.00 | 33 | 1009.4 |
| 20260503213533 | 26 | 219 | 4.8 | 19.3 | 0.00 | 0.00 | 0.00 | 33 | 1009.5 |
| 20260503213057 | 26 | 282 | 1.6 | 16.1 | 0.00 | 0.00 | 0.00 | 33 | 1009.5 |
| 20260503212522 | 26 | 237 | 0.0 | 14.5 | 0.00 | 0.00 | 0.00 | 33 | 1009.6 |
| 20260503212026 | 26 | 186 | 1.6 | 14.5 | 0.00 | 0.00 | 0.00 | 34 | 1009.6 |
| 20260503211533 | 26 | 261 | 1.6 | 17.7 | 0.00 | 0.00 | 0.00 | 33 | 1009.7 |
| 20260503211037 | 26 | 265 | 1.6 | 14.5 | 0.00 | 0.00 | 0.00 | 33 | 1009.8 |
| 20260503210542 | 26 | 217 | 1.6 | 16.1 | 0.00 | 0.00 | 0.00 | 33 | 1009.8 |
| 20260503210026 | 26 | 220 | 3.2 | 16.1 | 0.00 | 0.00 | 0.00 | 32 | 1010.0 |
| 20260503205551 | 26 | 212 | 3.2 | 14.5 | 0.00 | 0.00 | 0.00 | 32 | 1010.1 |
| 20260503205035 | 26 | 180 | 0.0 | 11.3 | 0.00 | 0.00 | 0.00 | 34 | 1010.1 |
| 20260503204521 | 26 | 223 | 1.6 | 16.1 | 0.00 | 0.00 | 0.00 | 34 | 1010.3 |
| 20260503204028 | 26 | 306 | 1.6 | 22.5 | 0.00 | 0.00 | 0.00 | 33 | 1010.4 |
| 20260503203534 | 26 | 271 | 3.2 | 22.5 | 0.00 | 0.00 | 0.00 | 35 | 1010.4 |
| 20260503203018 | 26 | 220 | 1.6 | 12.9 | 0.00 | 0.00 | 0.00 | 35 | 1010.4 |
| 20260503202526 | 26 | 185 | 1.6 | 27.4 | 0.00 | 0.00 | 0.00 | 36 | 1010.5 |
| 20260503202029 | 26 | 227 | 4.8 | 27.4 | 0.00 | 0.00 | 0.00 | 35 | 1010.6 |
| 20260503201535 | 26 | 297 | 3.2 | 16.1 | 0.00 | 0.00 | 0.00 | 36 | 1010.7 |
| 20260503201019 | 26 | 183 | 1.6 | 9.7 | 0.00 | 0.00 | 0.00 | 37 | 1010.7 |
| 20260503200544 | 26 | 242 | 1.6 | 22.5 | 0.00 | 0.00 | 0.00 | 37 | 1010.7 |
| 20260503200028 | 26 | 189 | 3.2 | 22.5 | 0.00 | 0.00 | 0.00 | 36 | 1010.9 |
| 20260503195533 | 26 | 186 | 1.6 | 14.5 | 0.00 | 0.00 | 0.00 | 37 | 1010.9 |
| 20260503195018 | 25 | 196 | 3.2 | 19.3 | 0.00 | 0.00 | 0.00 | 37 | 1010.9 |
| 20260503194527 | 25 | 231 | 1.6 | 19.3 | 0.00 | 0.00 | 0.00 | 38 | 1011.1 |
| 20260503194033 | 25 | 192 | 0.0 | 12.9 | 0.00 | 0.00 | 0.00 | 39 | 1011.2 |
| 20260503193539 | 25 | 223 | 3.2 | 14.5 | 0.00 | 0.00 | 0.00 | 39 | 1011.3 |
| 20260503193023 | 25 | 201 | 3.2 | 14.5 | 0.00 | 0.00 | 0.00 | 39 | 1011.4 |
| 20260503192528 | 25 | 217 | 1.6 | 14.5 | 0.00 | 0.00 | 0.00 | 39 | 1011.6 |
| 20260503192053 | 25 | 214 | 3.2 | 16.1 | 0.00 | 0.00 | 0.00 | 39 | 1011.5 |
| 20260503191518 | 25 | 207 | 3.2 | 16.1 | 0.00 | 0.00 | 0.00 | 38 | 1011.6 |
| 20260503191043 | 25 | 185 | 3.2 | 17.7 | 0.00 | 0.00 | 0.00 | 39 | 1011.7 |
| 20260503190527 | 25 | 201 | 3.2 | 19.3 | 0.00 | 0.00 | 0.00 | 38 | 1011.8 |
| 20260503190030 | 25 | 263 | 1.6 | 19.3 | 0.00 | 0.00 | 0.00 | 40 | 1011.9 |
| 20260503185533 | 24 | 182 | 1.6 | 16.1 | 0.00 | 0.00 | 0.00 | 40 | 1011.9 |
| 20260503185057 | 24 | 182 | 4.8 | 16.1 | 0.00 | 0.00 | 0.00 | 40 | 1012.0 |
| 20260503184521 | 24 | 232 | 3.2 | 16.1 | 0.00 | 0.00 | 0.00 | 42 | 1012.1 |
| 20260503184026 | 24 | 254 | 3.2 | 20.9 | 0.00 | 0.00 | 0.00 | 41 | 1012.2 |
| 20260503183553 | 23 | 277 | 3.2 | 20.9 | 0.00 | 0.00 | 0.00 | 42 | 1012.2 |
| 20260503183021 | 23 | 215 | 0.0 | 19.3 | 0.00 | 0.00 | 0.00 | 42 | 1012.2 |
| 20260503182526 | 23 | 192 | 3.2 | 19.3 | 0.00 | 0.00 | 0.00 | 42 | 1012.3 |
| 20260503182030 | 23 | 179 | 1.6 | 16.1 | 0.00 | 0.00 | 0.00 | 44 | 1012.5 |
| 20260503181535 | 23 | 217 | 3.2 | 16.1 | 0.00 | 0.00 | 0.00 | 42 | 1012.5 |
| 20260503181020 | 23 | 215 | 3.2 | 14.5 | 0.00 | 0.00 | 0.00 | 43 | 1012.7 |
| 20260503180527 | 23 | 183 | 1.6 | 17.7 | 0.00 | 0.00 | 0.00 | 43 | 1012.8 |
| 20260503180031 | 23 | 247 | 3.2 | 17.7 | 0.00 | 0.00 | 0.00 | 44 | 1012.9 |
| 20260503175536 | 23 | 234 | 0.0 | 16.1 | 0.00 | 0.00 | 0.00 | 45 | 1013.0 |
| 20260503175041 | 22 | 207 | 3.2 | 24.1 | 0.00 | 0.00 | 0.00 | 44 | 1013.1 |
| 20260503174524 | 22 | 208 | 1.6 | 14.5 | 0.00 | 0.00 | 0.00 | 44 | 1013.3 |
| 20260503174030 | 22 | 276 | 1.6 | 14.5 | 0.00 | 0.00 | 0.00 | 46 | 1013.4 |
| 20260503173519 | 22 | 213 | 3.2 | 17.7 | 0.00 | 0.00 | 0.00 | 46 | 1013.4 |
| 20260503173045 | 22 | 236 | 3.2 | 17.7 | 0.00 | 0.00 | 0.00 | 46 | 1013.4 |
| 20260503172529 | 22 | 176 | 1.6 | 14.5 | 0.00 | 0.00 | 0.00 | 47 | 1013.5 |
| 20260503172035 | 22 | 196 | 1.6 | 14.5 | 0.00 | 0.00 | 0.00 | 47 | 1013.7 |
| 20260503171521 | 22 | 220 | 1.6 | 9.7 | 0.00 | 0.00 | 0.00 | 47 | 1013.7 |
| 20260503171025 | 22 | 206 | 0.0 | 12.9 | 0.00 | 0.00 | 0.00 | 48 | 1013.8 |
| 20260503170531 | 21 | 197 | 1.6 | 12.9 | 0.00 | 0.00 | 0.00 | 47 | 1013.8 |
| 20260503150528 | 17 | 147 | 0.0 | 8.0 | 0.00 | 0.00 | 0.00 | 49 | 1015.3 |
| 20260503131029 | 11 | 188 | 0.0 | 1.6 | 0.00 | 0.00 | 0.00 | 62 | 1016.1 |
| 20260503130534 | 11 | 174 | 0.0 | 1.6 | 0.00 | 0.00 | 0.00 | 63 | 1016.1 |
| 20260503110523 | 8 | 180 | 0.0 | 0.0 | 0.00 | 0.00 | 0.00 | 71 | 1016.1 |